Powrót do katalogu

CZ-6A DEB

AktywnyPO
NORAD 60753·DEBRIS·🇨🇳 China

Wystrzelony Aug 6, 2024 z Taiyuan Satellite Launch Center

Loading…

Następne Przeloty (najbliższe 24 godziny)

TLE

ŚwieżeSource: Space-Track

Epoka: Sep 14, 2026, 11:25 UTC

1 60753U 24140EC  26257.47589123  .00001063  00000-0  56920-3 0  9998
2 60753  89.0580 271.7190 0106529 278.5533  80.3592 14.09676110106285

Śledź CZ-6A DEB w czasie rzeczywistym z AllMySat

Download on the App Store